CDT,Max TemperatureF,Mean TemperatureF,Min TemperatureF,Max Dew PointF,MeanDew PointF,Min DewpointF,Max Humidity, Mean Humidity, Min Humidity, Max Sea Level PressureIn, Mean Sea Level PressureIn, Min Sea Level PressureIn, Max VisibilityMiles, Mean VisibilityMiles, Min VisibilityMiles, Max Wind SpeedMPH, Mean Wind SpeedMPH, Max Gust SpeedMPH,PrecipitationIn, CloudCover, Events, WindDirDegrees
2012-3-1,79,64,48,64,54,40,90,72,56,29.96,29.84,29.68,10,8,4,13,4,22,0.00,1,,174
2012-3-2,73,64,54,64,49,32,94,58,24,29.84,29.74,29.64,10,8,3,13,7,18,0.00,2,,345
2012-3-3,62,52,41,35,26,16,60,38,18,30.22,30.08,29.86,10,10,10,17,12,29,0.00,2,,356
2012-3-4,73,54,35,31,27,19,76,42,13,30.25,30.20,30.12,10,10,10,15,3,21,0.00,0,,196
2012-3-5,75,58,42,46,33,23,67,40,14,30.34,30.26,30.21,10,10,10,15,5,25,0.00,0,,170
2012-3-6,73,63,53,55,51,48,86,68,42,30.20,30.09,29.91,10,10,9,28,13,45,0.00,4,,174
2012-3-7,70,66,62,63,60,55,90,80,73,30.00,29.94,29.86,10,9,3,21,13,30,0.00,8,Rain,171
2012-3-8,78,60,43,65,54,38,86,76,58,30.27,30.02,29.86,10,8,5,20,14,29,0.00,8,Rain,207
2012-3-9,43,41,39,39,37,33,93,88,73,30.40,30.34,30.25,10,6,1,21,12,32,0.45,8,Rain-Thunderstorm,14
2012-3-10,48,45,42,48,44,37,100,91,76,30.32,30.17,30.06,10,4,1,10,5,16,0.08,8,Rain-Thunderstorm,43
2012-3-11,70,59,48,55,49,48,100,88,49,30.08,30.04,29.94,10,7,1,14,3,,0.01,6,Rain-Thunderstorm,263
2012-3-12,84,65,46,62,52,44,90,67,26,30.08,30.03,29.99,10,10,8,12,3,17,0.00,0,,183
2012-3-13,75,68,62,64,62,60,94,83,64,30.16,30.08,30.01,10,8,3,13,8,21,0.00,7,,170
2012-3-14,78,70,64,65,63,60,94,81,62,30.14,30.08,30.02,10,8,6,13,8,23,0.00,7,,156
2012-3-15,80,72,66,64,62,61,88,79,56,30.19,30.11,30.03,10,9,7,13,6,20,0.00,7,,160
2012-3-16,77,70,66,64,63,62,90,80,62,30.14,30.06,29.97,10,9,6,16,8,32,0.00,6,Rain-Thunderstorm,162
2012-3-17,79,71,64,64,62,58,94,76,50,30.08,30.00,29.93,10,10,9,17,10,28,0.00,7,,159
2012-3-18,73,68,64,64,62,61,88,80,68,30.01,29.92,29.84,10,10,6,20,10,32,0.00,6,Rain,165
2012-3-19,78,66,55,65,59,52,100,81,60,29.81,29.71,29.56,10,6,0,26,15,38,1.32,7,Fog-Rain-Thunderstorm,144
2012-3-20,62,56,51,54,48,44,94,81,54,29.85,29.80,29.76,10,7,2,23,14,36,2.60,5,Rain-Thunderstorm,9
2012-3-21,66,54,42,47,40,35,86,60,35,29.88,29.85,29.81,10,10,10,16,4,25,0.00,0,,258
2012-3-22,80,63,46,46,40,34,80,50,19,29.99,29.88,29.82,10,10,10,24,6,33,0.00,0,,223
2012-3-23,80,62,44,51,45,40,86,58,32,30.06,30.00,29.94,10,10,10,9,2,,0.00,0,,98
2012-3-24,79,66,53,62,56,49,89,69,48,30.06,30.00,29.96,10,10,8,8,2,,0.00,0,,146
2012-3-25,84,68,55,63,57,53,93,70,41,30.09,30.02,29.98,10,8,4,8,1,,0.00,0,,123
2012-3-26,82,68,55,57,54,50,90,63,34,30.07,30.03,29.98,10,9,4,12,3,20,0.00,0,,150
2012-3-27,77,67,59,62,58,52,86,73,62,30.10,30.02,29.97,10,9,1,14,7,21,0.00,4,,166
2012-3-28,72,68,63,65,62,60,94,87,71,30.06,30.00,29.91,10,7,4,12,7,20,0.00,6,Rain-Thunderstorm,149
2012-3-29,79,70,62,65,63,60,97,83,60,30.00,29.90,29.78,10,6,0,8,5,,0.00,6,Fog,159
2012-3-30,86,72,60,66,63,58,97,78,40,29.91,29.83,29.74,10,6,0,14,7,22,0.00,3,Fog,174
2012-3-31,93,76,60,67,61,52,90,66,26,29.85,29.80,29.74,10,9,4,10,6,18,0.00,0,,190